EW6606 Weather Reports


Display with metric or nautical units.
time (UTC)temp
F
wind
direction
speed
MPH
gust
MPH
rain 1hr
in
rain 24hr
in
rain mn
in
humidity
%
barometer
mb
20260902182517 96 326 0.0 1.0 0.00 0.00 0.00 46 1018.7
20260902182013 96 147 0.0 2.0 0.00 0.00 0.00 46 1018.6
20260902181508 96 323 0.0 4.0 0.00 0.00 0.00 47 1018.8
20260902181002 95 179 1.0 7.0 0.00 0.00 0.00 47 1018.9
20260902180457 95 199 4.0 7.0 0.00 0.00 0.00 46 1019.0
20260902175952 94 195 1.0 5.0 0.00 0.00 0.00 47 1019.0
20260902175447 94 127 2.0 4.0 0.00 0.00 0.00 48 1019.1
20260902174943 94 130 2.0 2.0 0.00 0.00 0.00 50 1019.0
20260902174440 94 248 0.0 2.0 0.00 0.00 0.00 48 1019.0
20260902173935 94 131 4.0 5.0 0.00 0.00 0.00 49 1019.1
20260902173434 94 196 4.0 5.0 0.00 0.00 0.00 49 1019.2
20260902172929 94 122 4.0 6.0 0.00 0.00 0.00 49 1019.2
20260902172429 93 203 2.0 9.0 0.00 0.00 0.00 49 1019.5
20260902171924 93 104 1.0 2.0 0.00 0.00 0.00 51 1019.4
20260902171419 93 215 2.0 4.0 0.00 0.00 0.00 50 1019.5
20260902170915 93 124 4.0 5.0 0.00 0.00 0.00 50 1019.6
20260902170410 93 199 3.0 4.0 0.00 0.00 0.00 50 1019.8
20260902165906 93 133 3.0 6.0 0.00 0.00 0.00 49 1019.9
20260902165405 94 134 2.0 6.0 0.00 0.00 0.00 48 1019.7
20260902164900 95 211 3.0 9.0 0.00 0.00 0.00 47 1019.9
20260902164355 95 105 3.0 5.0 0.00 0.00 0.00 48 1019.9
20260902163854 95 140 4.0 5.0 0.00 0.00 0.00 46 1019.9
20260902163349 96 142 4.0 7.0 0.00 0.00 0.00 46 1019.9
20260902162848 96 74 3.0 4.0 0.00 0.00 0.00 49 1020.2
20260902162343 95 73 3.0 4.0 0.00 0.00 0.00 49 1020.1
20260902161843 95 63 2.0 3.0 0.00 0.00 0.00 51 1020.1
20260902161338 94 3 2.0 4.0 0.00 0.00 0.00 52 1020.3
20260902160834 93 139 1.0 4.0 0.00 0.00 0.00 54 1020.2
20260902160330 93 148 2.0 4.0 0.00 0.00 0.00 54 1020.2
20260902155827 93 207 3.0 4.0 0.00 0.00 0.00 56 1020.2
20260902155326 92 342 2.0 5.0 0.00 0.00 0.00 55 1020.3
20260902154821 92 345 2.0 5.0 0.00 0.00 0.00 55 1020.3
20260902154318 92 249 0.0 5.0 0.00 0.00 0.00 56 1020.4
20260902153816 91 134 3.0 5.0 0.00 0.00 0.00 57 1020.4
20260902153315 91 339 1.0 3.0 0.00 0.00 0.00 57 1020.4
20260902152811 91 0 1.0 4.0 0.00 0.00 0.00 55 1020.3
20260902152308 91 22 1.0 3.0 0.00 0.00 0.00 60 1020.3
20260902151802 91 4 3.0 4.0 0.00 0.00 0.00 60 1020.4
20260902151257 91 10 1.0 3.0 0.00 0.00 0.00 62 1020.4
20260902150752 90 3 2.0 4.0 0.00 0.00 0.00 63 1020.3
20260902150249 90 18 2.0 3.0 0.00 0.00 0.00 63 1020.3
20260902145747 89 21 2.0 3.0 0.00 0.00 0.00 64 1020.3
20260902145243 89 279 0.0 4.0 0.00 0.00 0.00 66 1020.2
20260902144738 88 251 5.0 5.0 0.00 0.00 0.00 68 1020.3
20260902144234 87 352 2.0 2.0 0.00 0.00 0.00 67 1020.2
20260902143729 87 314 1.0 3.0 0.00 0.00 0.00 68 1020.4
20260902143224 87 14 0.0 3.0 0.00 0.00 0.00 68 1020.3
20260902142720 86 319 0.0 3.0 0.00 0.00 0.00 71 1020.3
20260902142215 86 345 2.0 3.0 0.00 0.00 0.00 71 1020.1
20260902141710 86 0 1.0 2.0 0.00 0.00 0.00 72 1020.2
20260902141205 85 349 0.0 2.0 0.00 0.00 0.00 74 1020.3
20260902140700 85 353 1.0 2.0 0.00 0.00 0.00 74 1020.4
20260902140155 84 358 2.0 2.0 0.00 0.00 0.00 74 1020.3
20260902135654 84 2 1.0 3.0 0.00 0.00 0.00 75 1020.2
20260902135149 83 8 1.0 2.0 0.00 0.00 0.00 77 1020.3
20260902134645 83 2 1.0 2.0 0.00 0.00 0.00 78 1020.3
20260902134144 82 171 0.0 3.0 0.00 0.00 0.00 79 1020.4
20260902133639 81 120 3.0 4.0 0.00 0.00 0.00 80 1020.6
20260902133133 80 172 1.0 2.0 0.00 0.00 0.00 81 1020.2
20260902132629 80 84 1.0 3.0 0.00 0.00 0.00 84 1020.4
20260902132124 79 50 0.0 1.0 0.00 0.00 0.00 85 1020.3
20260902131621 78 358 0.0 2.0 0.00 0.00 0.00 86 1020.3
20260902131115 78 359 2.0 2.0 0.00 0.00 0.00 86 1020.3
20260902130611 77 21 1.0 2.0 0.00 0.00 0.00 87 1020.3
20260902130106 77 38 2.0 2.0 0.00 0.00 0.00 87 1020.3
20260902125602 76 14 0.0 1.0 0.00 0.00 0.00 88 1020.3
20260902125057 76 269 0.0 0.0 0.00 0.00 0.00 88 1020.2
20260902124554 76 89 0.0 1.0 0.00 0.00 0.00 88 1020.2
20260902124054 75 62 0.0 1.0 0.00 0.00 0.00 88 1020.3
20260902123549 75 297 0.0 1.0 0.00 0.00 0.00 88 1020.1
20260902123049 75 357 0.0 1.0 0.00 0.00 0.00 88 1020.2
20260902122544 75 7 0.0 2.0 0.00 0.00 0.00 88 1020.2
20260902122040 74 49 0.0 0.0 0.00 0.00 0.00 88 1020.3
20260902121539 74 49 0.0 0.0 0.00 0.00 0.00 88 1020.2
20260902121034 74 84 0.0 1.0 0.00 0.00 0.00 88 1020.0
20260902120531 74 322 0.0 0.0 0.00 0.00 0.00 88 1020.4
20260902120027 74 22 0.0 2.0 0.00 0.00 0.00 88 1020.2
20260902115521 74 60 0.0 1.0 0.00 0.00 0.00 88 1020.1
20260902115018 74 37 0.0 1.0 0.00 0.00 0.00 88 1019.9
20260902114513 74 25 0.0 1.0 0.00 0.00 0.00 88 1019.8
20260902114013 74 62 0.0 1.0 0.00 0.00 0.00 87 1019.7
20260902113509 74 25 0.0 2.0 0.00 0.00 0.00 87 1019.8
20260902113004 74 9 1.0 2.0 0.00 0.00 0.00 87 1019.7
20260902112459 74 25 0.0 1.0 0.00 0.00 0.00 87 1019.6
20260902111955 74 32 0.0 2.0 0.00 0.00 0.00 87 1019.7
20260902111452 74 37 0.0 0.0 0.00 0.00 0.00 87 1019.6
20260902110947 74 22 0.0 1.0 0.00 0.00 0.00 87 1019.6
20260902110443 74 356 0.0 2.0 0.00 0.00 0.00 87 1019.5
20260902105943 74 62 0.0 1.0 0.00 0.00 0.00 87 1019.4
20260902105433 74 146 0.0 1.0 0.00 0.00 0.00 87 1019.3
20260902104927 74 142 0.0 0.0 0.00 0.00 0.00 87 1019.3
20260902104423 74 142 0.0 1.0 0.00 0.00 0.00 87 1019.3
20260902103923 74 103 0.0 0.0 0.00 0.00 0.00 86 1019.4
20260902103418 75 142 0.0 1.0 0.00 0.00 0.00 86 1019.3
20260902102913 75 50 0.0 1.0 0.00 0.00 0.00 86 1019.1
20260902102410 75 129 0.0 2.0 0.00 0.00 0.00 86 1019.2
20260902101906 75 117 0.0 1.0 0.00 0.00 0.00 86 1019.2
20260902101400 75 50 0.0 1.0 0.00 0.00 0.00 85 1019.2
20260902100900 75 104 0.0 1.0 0.00 0.00 0.00 85 1019.1
20260902100354 75 62 0.0 0.0 0.00 0.00 0.00 85 1018.9
20260902095849 75 50 0.0 0.0 0.00 0.00 0.00 85 1018.9
20260902095349 75 50 0.0 0.0 0.00 0.00 0.00 85 1018.9
20260902094843 75 30 0.0 1.0 0.00 0.00 0.00 85 1019.0
20260902094340 75 112 0.0 2.0 0.00 0.00 0.00 85 1018.7
20260902093838 75 62 0.0 0.0 0.00 0.00 0.00 85 1018.7
20260902093334 75 354 0.0 2.0 0.00 0.00 0.00 85 1018.8
20260902092832 75 19 0.0 2.0 0.00 0.00 0.00 84 1018.7
20260902092329 75 37 0.0 1.0 0.00 0.00 0.00 84 1018.6
20260902091823 75 142 0.0 1.0 0.00 0.00 0.00 84 1018.6
20260902091319 75 148 0.0 2.0 0.00 0.00 0.00 84 1018.5
20260902090815 75 333 0.0 1.0 0.00 0.00 0.00 84 1018.6
20260902090314 75 31 0.0 2.0 0.00 0.00 0.00 84 1018.6
20260902085813 75 358 0.0 2.0 0.00 0.00 0.00 84 1018.4
20260902085309 75 44 0.0 1.0 0.00 0.00 0.00 84 1018.5
20260902084805 75 124 0.0 0.0 0.00 0.00 0.00 84 1018.3
20260902084301 76 124 0.0 1.0 0.00 0.00 0.00 84 1018.3
20260902083756 75 7 0.0 1.0 0.00 0.00 0.00 83 1018.3
20260902083250 76 22 0.0 2.0 0.00 0.00 0.00 83 1018.3
20260902082745 76 297 0.0 1.0 0.00 0.00 0.00 83 1018.3
20260902082242 76 309 0.0 1.0 0.00 0.00 0.00 83 1018.3
20260902081738 76 25 0.0 2.0 0.00 0.00 0.00 83 1018.4
20260902081233 76 326 0.0 1.0 0.00 0.00 0.00 83 1018.4
20260902080728 76 242 0.0 1.0 0.00 0.00 0.00 83 1018.2
20260902080225 76 89 0.0 1.0 0.00 0.00 0.00 83 1018.3
20260902075724 76 75 0.0 2.0 0.00 0.00 0.00 82 1018.3
20260902075221 76 75 0.0 2.0 0.00 0.00 0.00 82 1018.3
20260902074720 76 104 0.0 1.0 0.00 0.00 0.00 82 1018.3
20260902074216 76 50 0.0 1.0 0.00 0.00 0.00 82 1018.3
20260902073711 77 124 0.0 0.0 0.00 0.00 0.00 82 1018.2
20260902073207 77 117 0.0 1.0 0.00 0.00 0.00 82 1018.2
20260902072703 77 129 0.0 1.0 0.00 0.00 0.00 82 1018.0
20260902072159 77 37 0.0 0.0 0.00 0.00 0.00 81 1018.1
20260902071654 77 37 0.0 1.0 0.00 0.00 0.00 81 1018.3
20260902071149 77 18 0.0 2.0 0.00 0.00 0.00 81 1018.4
20260902070646 77 217 0.0 0.0 0.00 0.00 0.00 80 1018.4
20260902070145 77 217 0.0 0.0 0.00 0.00 0.00 80 1018.2
20260902065644 77 50 0.0 0.0 0.00 0.00 0.00 80 1018.2
20260902065140 77 50 0.0 0.0 0.00 0.00 0.00 80 1018.2
20260902064635 77 50 0.0 0.0 0.00 0.00 0.00 80 1018.3
20260902064131 77 50 0.0 0.0 0.00 0.00 0.00 80 1018.3
20260902063626 77 50 0.0 0.0 0.00 0.00 0.00 80 1018.2
20260902063121 77 50 0.0 0.0 0.00 0.00 0.00 81 1018.1
20260902062619 77 7 0.0 1.0 0.00 0.00 0.00 80 1018.2
20260902062115 77 174 0.0 0.0 0.00 0.00 0.00 80 1018.4
20260902061614 78 173 2.0 3.0 0.00 0.00 0.00 80 1018.3
20260902061110 78 124 0.0 0.0 0.00 0.00 0.00 79 1018.2
20260902060607 78 124 0.0 0.0 0.00 0.00 0.00 79 1018.4
20260902055558 78 187 0.0 1.0 0.00 0.00 0.00 79 1018.2
20260902055054 78 22 0.0 0.0 0.00 0.00 0.00 78 1018.4
20260902054548 78 117 0.0 0.0 0.00 0.00 0.00 78 1018.4
20260902054044 78 117 0.0 0.0 0.00 0.00 0.00 78 1018.5
20260902053539 79 117 0.0 0.0 0.00 0.00 0.00 78 1018.5
20260902053039 79 117 0.0 0.0 0.00 0.00 0.00 78 1018.3
20260902052533 78 117 0.0 0.0 0.00 0.00 0.00 78 1018.3
20260902052029 79 117 0.0 0.0 0.00 0.00 0.00 77 1018.3
20260902051529 79 117 0.0 0.0 0.00 0.00 0.00 77 1018.2
20260902051027 79 154 0.0 0.0 0.00 0.00 0.00 77 1018.5
20260902050523 79 154 0.0 1.0 0.00 0.00 0.00 76 1018.2
20260902050018 79 113 0.0 2.0 0.00 0.00 0.00 76 1018.3
20260902045513 79 117 0.0 1.0 0.00 0.00 0.00 76 1018.3
20260902045010 79 104 0.0 0.0 0.00 0.00 0.00 76 1018.3
20260902044504 80 112 0.0 1.0 0.00 0.00 0.00 75 1018.5
20260902044000 80 80 1.0 2.0 0.00 0.00 0.00 75 1018.5
20260902043454 80 142 0.0 0.0 0.00 0.00 0.00 75 1018.6
20260902042949 80 142 0.0 1.0 0.00 0.00 0.00 75 1018.6
20260902042449 80 89 0.0 1.0 0.00 0.00 0.00 75 1018.6
20260902041944 80 117 0.0 1.0 0.00 0.00 0.00 74 1018.6
20260902041439 80 117 0.0 1.0 0.00 0.00 0.00 74 1018.6
20260902040939 80 117 0.0 1.0 0.00 0.00 0.00 73 1018.7
20260902040433 80 129 0.0 0.0 0.00 0.00 0.00 73 1018.5
20260902035932 80 129 0.0 1.0 0.00 0.00 0.00 73 1018.6
20260902035427 80 25 0.0 1.0 0.00 0.00 0.00 73 1018.7
20260902034927 81 22 0.0 1.0 0.00 0.00 0.00 72 1018.7
20260902034422 81 117 0.0 0.0 0.00 0.00 0.00 71 1018.8
20260902033921 81 117 0.0 1.0 0.00 0.00 0.00 71 1018.6
20260902033415 81 142 0.0 0.0 0.00 0.00 0.00 70 1018.6
20260902032914 81 142 0.0 0.0 0.00 0.00 0.00 70 1018.6
20260902032409 81 142 0.0 0.0 0.00 0.00 0.00 69 1018.6
20260902031909 81 142 0.0 0.0 0.00 0.00 0.00 69 1018.7
20260902031359 82 142 0.0 0.0 0.00 0.00 0.00 69 1018.6
20260902030855 82 142 0.0 0.0 0.00 0.00 0.00 68 1018.7
20260902030349 82 142 0.0 0.0 0.00 0.00 0.00 68 1018.7
20260902025848 82 142 0.0 0.0 0.00 0.00 0.00 68 1018.7
20260902025344 82 142 0.0 0.0 0.00 0.00 0.00 67 1018.7
20260902024838 82 142 0.0 0.0 0.00 0.00 0.00 67 1018.5
20260902024334 82 142 0.0 0.0 0.00 0.00 0.00 66 1018.7
20260902023829 83 142 0.0 0.0 0.00 0.00 0.00 66 1018.6
20260902023325 83 142 0.0 0.0 0.00 0.00 0.00 65 1018.5
20260902022823 83 163 0.0 1.0 0.00 0.00 0.00 65 1018.6
20260902022319 83 32 0.0 0.0 0.00 0.00 0.00 64 1018.4
20260902021815 84 32 0.0 1.0 0.00 0.00 0.00 63 1018.2
20260902021309 84 18 1.0 2.0 0.00 0.00 0.00 63 1018.5
20260902020805 84 180 0.0 0.0 0.00 0.00 0.00 62 1018.4
20260902020301 85 180 0.0 1.0 0.00 0.00 0.00 62 1018.3
20260902015755 85 129 0.0 0.0 0.00 0.00 0.00 61 1018.2
20260902015252 85 129 0.0 0.0 0.00 0.00 0.00 61 1018.2
20260902014748 85 142 0.0 1.0 0.00 0.00 0.00 61 1018.0
20260902014244 85 195 0.0 1.0 0.00 0.00 0.00 61 1018.1
20260902013742 85 172 0.0 2.0 0.00 0.00 0.00 60 1017.8
20260902013238 86 117 0.0 0.0 0.00 0.00 0.00 59 1017.7
20260902012733 86 106 0.0 1.0 0.00 0.00 0.00 58 1017.9
20260902012229 86 154 0.0 1.0 0.00 0.00 0.00 58 1017.8
20260902011725 86 127 1.0 2.0 0.00 0.00 0.00 57 1017.7
20260902011224 87 141 1.0 2.0 0.00 0.00 0.00 57 1017.6
20260902010724 87 130 1.0 2.0 0.00 0.00 0.00 56 1017.7
20260902010220 87 130 0.0 1.0 0.00 0.00 0.00 56 1017.7
20260902005718 87 129 0.0 2.0 0.00 0.00 0.00 55 1017.8
20260902005214 88 158 1.0 2.0 0.00 0.00 0.00 55 1017.6
20260902004713 88 121 1.0 1.0 0.00 0.00 0.00 54 1017.6
20260902004209 89 132 1.0 1.0 0.00 0.00 0.00 52 1017.6
20260902003704 89 142 0.0 1.0 0.00 0.00 0.00 51 1017.5
20260902003159 90 217 0.0 0.0 0.00 0.00 0.00 51 1017.4
20260902002654 90 0 0.0 0.0 0.00 0.00 0.00 50 1017.4
20260902002149 90 0 0.0 0.0 0.00 0.00 0.00 50 1017.5
20260902001644 91 0 0.0 1.0 0.00 0.00 0.00 49 1017.4
20260902001144 91 69 0.0 3.0 0.00 0.00 0.00 49 1017.5
20260902000639 91 89 0.0 3.0 0.00 0.00 0.00 48 1017.4
20260902000134 91 89 0.0 2.0 0.00 0.00 0.00 48 1017.6
20260901235634 92 119 1.0 2.0 0.00 0.00 0.00 48 1017.4
20260901235129 92 89 0.0 2.0 0.00 0.00 0.00 47 1017.4
20260901234628 92 48 1.0 3.0 0.00 0.00 0.00 47 1017.4
20260901234124 92 135 0.0 1.0 0.00 0.00 0.00 47 1017.4
20260901233619 93 87 1.0 2.0 0.00 0.00 0.00 46 1017.4
20260901233115 93 104 0.0 3.0 0.00 0.00 0.00 46 1017.4
20260901232614 93 193 2.0 4.0 0.00 0.00 0.00 45 1017.4
20260901232109 93 54 2.0 2.0 0.00 0.00 0.00 45 1017.6
20260901231606 94 117 0.0 2.0 0.00 0.00 0.00 45 1017.6
20260901231102 94 141 2.0 3.0 0.00 0.00 0.00 44 1017.5
20260901230558 94 86 2.0 3.0 0.00 0.00 0.00 43 1017.4
20260901230057 94 136 2.0 3.0 0.00 0.00 0.00 42 1017.3
20260901225553 94 58 0.0 2.0 0.00 0.00 0.00 43 1017.5
20260901225052 94 15 0.0 3.0 0.00 0.00 0.00 43 1017.4
20260901224548 94 0 1.0 2.0 0.00 0.00 0.00 43 1017.4
20260901224044 94 94 1.0 3.0 0.00 0.00 0.00 42 1017.4
20260901223540 95 167 2.0 6.0 0.00 0.00 0.00 41 1017.3
20260901223035 95 142 5.0 5.0 0.00 0.00 0.00 42 1017.5
20260901222531 94 230 0.0 2.0 0.00 0.00 0.00 41 1017.4
20260901222026 95 146 1.0 3.0 0.00 0.00 0.00 42 1017.3
20260901221523 95 4 2.0 2.0 0.00 0.00 0.00 41 1017.4
20260901221018 95 129 2.0 4.0 0.00 0.00 0.00 41 1017.5
20260901220518 96 354 2.0 5.0 0.00 0.00 0.00 41 1017.3
20260901220016 96 51 3.0 4.0 0.00 0.00 0.00 41 1017.3
20260901215514 96 138 2.0 7.0 0.00 0.00 0.00 40 1017.2
20260901215009 96 144 1.0 3.0 0.00 0.00 0.00 41 1017.2
20260901214508 96 57 0.0 3.0 0.00 0.00 0.00 40 1017.3
20260901214002 96 222 1.0 4.0 0.00 0.00 0.00 39 1017.3
20260901213456 96 168 0.0 6.0 0.00 0.00 0.00 38 1017.3
20260901212955 96 36 0.0 6.0 0.00 0.00 0.00 38 1017.4
20260901212451 96 109 3.0 7.0 0.00 0.00 0.00 39 1017.3
20260901211948 96 121 2.0 4.0 0.00 0.00 0.00 39 1017.4
20260901211443 95 121 1.0 7.0 0.00 0.00 0.00 38 1017.4
20260901210939 95 197 0.0 3.0 0.00 0.00 0.00 37 1017.4
20260901210434 95 137 4.0 7.0 0.00 0.00 0.00 37 1017.5
20260901205931 95 143 6.0 7.0 0.00 0.00 0.00 41 1017.6
20260901205430 95 297 4.0 5.0 0.00 0.00 0.00 42 1017.5
20260901204925 95 300 2.0 3.0 0.00 0.00 0.00 41 1017.8
20260901204422 95 96 2.0 2.0 0.00 0.00 0.00 40 1017.7
20260901203921 96 147 0.0 4.0 0.00 0.00 0.00 39 1017.7
20260901203418 96 168 2.0 6.0 0.00 0.00 0.00 40 1017.9
20260901202912 96 149 4.0 7.0 0.00 0.00 0.00 40 1017.8
20260901202406 96 201 2.0 6.0 0.00 0.00 0.00 40 1017.9
20260901201902 96 55 2.0 4.0 0.00 0.00 0.00 42 1017.9
20260901201401 95 158 2.0 4.0 0.00 0.00 0.00 41 1018.0
20260901200856 96 147 4.0 9.0 0.00 0.00 0.00 39 1018.0
20260901200351 96 172 0.0 11.0 0.00 0.00 0.00 39 1018.1
20260901195849 96 193 5.0 9.0 0.00 0.00 0.00 38 1018.0
20260901195343 96 156 1.0 6.0 0.00 0.00 0.00 39 1018.2
20260901194838 96 313 2.0 5.0 0.00 0.00 0.00 40 1018.2
20260901194332 96 226 4.0 6.0 0.00 0.00 0.00 40 1018.3
20260901193830 96 108 3.0 9.0 0.00 0.00 0.00 40 1018.3
20260901193328 96 71 2.0 5.0 0.00 0.00 0.00 40 1018.3
20260901192822 96 200 5.0 9.0 0.00 0.00 0.00 40 1018.4
20260901192318 97 155 3.0 6.0 0.00 0.00 0.00 41 1018.4
20260901191815 97 144 3.0 6.0 0.00 0.00 0.00 41 1018.6
20260901191310 96 337 3.0 6.0 0.00 0.00 0.00 42 1018.6
20260901190806 96 140 4.0 10.0 0.00 0.00 0.00 40 1018.7
20260901190305 96 248 5.0 8.0 0.00 0.00 0.00 42 1018.8
20260901185804 96 332 1.0 3.0 0.00 0.00 0.00 43 1019.0
20260901185305 96 10 3.0 4.0 0.00 0.00 0.00 43 1018.9
20260901184758 95 110 4.0 6.0 0.00 0.00 0.00 43 1018.9
20260901184248 95 87 2.0 7.0 0.00 0.00 0.00 44 1018.9
20260901183744 95 132 2.0 6.0 0.00 0.00 0.00 43 1018.9
20260901183243 96 139 5.0 9.0 0.00 0.00 0.00 42 1019.1
20260901182739 96 22 1.0 7.0 0.00 0.00 0.00 43 1019.0